AirNav   ATP
 
 1677 users online  

TN93 Gateway Medical Center Heliport
Clarksville, Tennessee, USA


FAA INFORMATION EFFECTIVE 14 SEPTEMBER 2017

Location

FAA Identifier: TN93
Lat/Long: 36-34-50.2800N / 087-16-09.8000W
36-34.838000N / 087-16.163333W
36.5806333 / -87.2693889
(estimated)
Elevation: 516 ft. / 157 m (estimated)
From city: 5 miles NE of CLARKSVILLE, TN
Time zone: UTC -5 (UTC -6 during Standard Time)
Zip code: 37040

Heliport Operations

Heliport use: Private use. Permission required prior to landing
Activation date: 09/2011
Control tower: no
ARTCC: MEMPHIS CENTER
FSS: JACKSON FLIGHT SERVICE STATION
NOTAMs facility: FDC (NOTAM-D service not available)
Attendance: UNATNDD
Wind indicator: lighted
Segmented circle: no
Lights: SS-SR

Heliport Communications

WX ASOS at CKV (7 nm W): 134.575 (931-431-3045)
WX AWOS-3 at EOD (10 nm W): PHONE 270-956-3100
WX AWOS-3 at M91 (17 nm E): 120.675 (615-384-8206)
WX AWOS-3 at HVC (19 nm NW): 132.575 (270-886-6311)

Nearby radio navigation aids

VOR radial/distance  VOR name  Freq  Var
CKVr111/7.3CLARKSVILLE VOR/DME110.6001W
BNAr315/38.8NASHVILLE VORTAC114.1002W

 
NDB name  Hdg/Dist  Freq  Var  ID
AIRBE144/11.727301WFK ..-. -.-
DICKSON017/28.320301WDMZ -.. -- --..

Heliport Services

Runway Information

Helipad H1

Dimensions: 40 x 40 ft. / 12 x 12 m
Surface: concrete
Runway edge lights: PERI
PERI & FLD LGTS.
Latitude: 36-34.838000N
Longitude: 087-16.163333W
Elevation: 516.0 ft.
Traffic pattern: leftleft

Heliport Ownership and Management from official FAA records

Ownership: Privately-owned
Owner: GATEWAY MEDICAL CENTER
651 DUNLOP LANE
CLARKSVILLE, TN 37040
Phone 931-502-1000
Manager: MIKE HOLZKAMPER
651 DUNLOP LANE
CLARKSVILLE, TN 37040
Phone 931-502-1900
FAX# 931-502-1905

Instrument Procedures

There are no published instrument procedures at TN93.

Some nearby airports with instrument procedures:

KCKV - Outlaw Field Airport (7 nm W)
KEOD - Sabre Army Airfield (Fort Campbell) (10 nm W)
KHOP - Campbell Army Airfield (Fort Campbell) (12 nm NW)
M91 - Springfield Robertson County Airport (17 nm E)
KHVC - Hopkinsville-Christian County Airport (19 nm NW)
 
Loc | Ops | Rwys | IFR | FBO | Links
Com | Nav | Svcs | Stats | Notes


 
Aerial photo
No photo
 
Airport distance calculator
Flying to Gateway Medical Center Heliport? Find the distance to fly.

From to TN93

Sunrise and sunset
Times for 21-Sep-2017
 Local
(UTC-5)
 Zulu
(UTC)
Morning civil twilight06:1111:11
Sunrise06:3711:37
Sunset18:4723:47
Evening civil twilight19:1300:13

Current date and time
Zulu (UTC)  21-Sep-2017 20:05:48
Local (UTC-5)  21-Sep-2017 15:05:48
 
METAR
KCKV 
7nm W 
211952Z AUTO 16005KT 10SM SCT050 32/20 A3003 RMK AO2 SLP162 T03170200
KEOD 
10nm W 
211958Z AUTO 00000KT 10SM CLR 31/22 A3002 RMK AO2 SLP163 T03130216
KHOP 
12nm NW 
211958Z AUTO 27004KT 10SM FEW050 SCT160 32/22 A3002 RMK AO2 SLP161 T03160217 $
KM91 
17nm E 
211955Z AUTO 19006KT 10SM CLR 30/23 A3002 RMK A01
TAF
KCKV 
7nm W 
211721Z 2118/2218 VRB05KT P6SM SCT050 SCT100 FM220800 00000KT 3SM BR BCFG SKC FM221400 08006KT P6SM SCT050
KHOP 
12nm NW 
211600Z 2116/2222 VRB06KT 9999 SCT045 QNH2999INS WND 09006KT AFT 2121 TX32/2120Z TN20/2212Z
NOTAMs
Click for the latest NOTAMs
NOTAMs are issued by the DoD/FAA and will open in a separate window not controlled by AirNav.

 

 
 

Would you like to see your business listed on this page?

 If your business provides an interesting product or service to pilots, flight crews, aircraft, or users of the Gateway Medical Center Heliport, you should consider listing it here.  To start the listing process, click on the button below
 
Add a business
 

Other Pages about Gateway Medical Center Heliport

Update a link
 
Copyright © AirNav, LLC. All rights reserved. Privacy Policy  Contact